CZ-6A DEB, 61452

Orbit data source: Space-Track

CZ-6A DEB, 61452 is space debris in LEO originally from a launch on Tue, 06 Aug 2024 UTC launched from the Taiyaun Space Center, China (TSC). Debris objects in space refer to the collection of defunct objects orbiting the Earth. Examples of debris include non-operational satellites, rocket bodies, and fragments generated from explosions, collisions, or faulty payload assembly.

Loading next visibility...
Identifier
61452, 2024-140ZJ
Orbit
LEO
Country
Flag of CNCN / PRC
Related business
Manufacturer
SAST
Mission
Spacecraft
Bus & Motor
Unknown
Mass
Unknown
Launch date (UTC)
2024-08-06 (2 years ago)
Launch vehicle
Unknown
Launch site
Taiyaun Space Center, China (TSC)
Object type
Payload
Rocket body
Debris
Shape & HBR
Unknown shape, 0.1 m
Radar Cross Section
Medium (>0.1 m² and <1 m²)

Expand to show TLE details & history
Last TLE update: 15 hours ago

TLE from 15 hours ago
0 CZ-6A DEB
1 61452U 24140ZJ  26171.22770829  .00004013  00000-0  10374-2 0  9998
2 61452  88.8957 262.5172 0059157 207.0016 152.8109 14.48729354 95369
Epoch: 2026-06-20T05:27Z
TLE epoch observation values (Epoch: 2026-06-20T05:27:53.996Z)
Latitude
-0.00008°
Longitude
-87.90314°
Altitude
770.357 km
Speed
7.449 km/s
True Right ascension
17h 30m 04s
True Declination
0° 00' 00"
Sunlit
Object was in full shadow at epoch
Visualization orbit readout
Latitude
Unknown
Longitude
Unknown
Altitude
Unknown
Speed
Unknown
Apparent Right ascension
Unknown
Apparent Declination
Unknown
Sunlit
N/A
Visualization observer readout
Local Sidereal Time
07:20:23
Azimuth
Unknown
Elevation
Unknown
Doppler factor
Unknown
Orbital elements
Apogee altitude
768.742 km
Perigee altitude
684.682 km
Semi-major axis
7,104.849 km
Eccentricity
0.00592
Inclination
88.8957°
RAAN
262.5172°
Arg. of periapsis
207.0016°
True anomaly
153.11862°
Mean anomaly
152.8109°
Eccentric anomaly
152.96496°
Mean motion
3.62419 °/min
Orbital period
99.33 mins
BSTAR
0.0010374
Loading maneuver chart data...
Computing Atmospheric mass density...
Loading historical data...
Loading historical data...
Loading historical data...
Loading historical data...
Loading historical data...
Loading historical data...
Loading historical data...

Documentation

Showing up to 5 results
|